You are not logged in, Click here to log in
法蘭克福機場FRA / EDDF 德國黑森邦法蘭克福
ICAO: EDDF Country: 德國黑森邦法蘭克福
Latitude: 50.0264 Longitude: 8.54313
Total Arrivals: 35 Total Departures: 37
Latest Arrival: CI1924 (EGCC-EDDF)ALAN. LIU Latest Departure: CI1925 (EDDF-EPKK)ALAN. LIU
Scenery:
METAR : EDDF 190320Z 20015KT 9999 -RA SCT025 BKN029 07/03 Q1016 NOSIG

法蘭克福機場FRA

You are accessing this site from IP address 35.175.113.29. Virtual Airline. CMS by phpVMS.Website designed by Zumeweb and edited by Theo Bearman.
There is 0 User(s) Online: | and 12 Guest(s) Online.
All information on this site is for fight simulation purposes only. This site is for flight logging for pilots of Virtual Airline&模擬飛行論壇 FlySim only.